TIANLIAN 2-03 (53100 NORAD) Tracking and Keplerian Element Data

This shows tracking and keplerian element data for the satellite.

Feedback or suggestion? Click here.




ElementValue
Catalog53100
NameTIANLIAN 2-03
Epoch Orbit92
Epoch Day269.79285444
Epoch Year2022
RAAN284.206
Inclination2.8398
Eccentricity0.000119
Argument of Perigee224.7745
Mean Anonmoly152.5748
Mean Motion1.00273351
Decay Rate7.1E-07
L11 53100U 22078A 22269.79285444 .00000071 00000+0 00000+0 0 9998
L22 53100 2.8398 284.2060 0001190 224.7745 152.5748 1.00273351 920

Live tracking and technical data element details for TIANLIAN 2-03 (NORAD 53100). TIANLIAN 2-03 can be tracked NOW for your location showing map with azimuth and elevation plus other details from your city location.

Track the satellite on the map from your city or location and see movement details for azimuth, elevation, latitude, longitude, range, height, and movement on the map or in text.







IsCatalogInMostPopularTable: catalog: 53100, numindb: 6
Update: records affected: 1



GetName: 53100 TIANLIAN 2-03

Hit Count: updated at: Fri, 30 Sep 2022 04:26:40 GMT